Location: Bosmont
(49.7318°N, 3.8587°E)
Time: 00:02:05
(UTC+00:00)

Cosmos 1892 - Pass Details

Date: 08 February 2023
Orbit: 486 x 506 km, 82.5° (Epoch: 29 March)

Event Time Altitude Azimuth Distance (km) Brightness Sun altitude
Rises 18:00:47 0° 212° (SSW) 2,584 6.9 -11.6°
Reaches altitude 10° 18:03:02 10° 222° (SW) 1,711 6.1 -12.0°
Maximum altitude 18:06:27 32° 287° (WNW) 883 4.5 -12.5°
Drops below altitude 10° 18:09:55 10° 353° (N) 1,738 5.4 -13.1°
Sets 18:12:13 0° 3° (N) 2,633 6.2 -13.5°
